Location: Albuquerque Trailhead
(34.7934°N, 106.3736°W)
Time: 23:46:38
(UTC+00:00)

NOAA 19 - Pass Details

Date: 11 April 2023
Orbit: 840 x 859 km, 99.1° (Epoch: 28 May)

Event Time Altitude Azimuth Distance (km) Brightness Sun altitude
Exits shadow 04:29:02 - 229° (SW) 2,702 7.9 -33.1°
Reaches altitude 10° 04:30:13 10° 239° (WSW) 2,458 7.8 -33.3°
Maximum altitude 04:32:47 13° 267° (W) 2,223 7.8 -33.7°
Drops below altitude 10° 04:35:22 10° 296° (WNW) 2,461 8.4 -34.1°
Sets 04:39:07 0° 322° (NW) 3,400 9.4 -34.6°
